星链-4482 (STARLINK-4482 )

导读 | 星芒AI

STARLINK-4482 是 SpaceX Starlink 项目中的一颗低轨道卫星,属于其第二代卫星群(Gen2)的一部分。该卫星旨在为全球提供高速、低延迟的互联网服务,主要服务于偏远和网络基础设施薄弱的地区。它运行在约 550 公里的轨道高度,配备先进通信设备,支持更广的覆盖和更高的数据传输效率。STARLINK-4482 的发射和运行体现了 SpaceX 在构建全球卫星互联网系统方面的持续进展。

基本信息
目录编号:
53530
目录名称:
STARLINK-4482
国际标识:
2022-101D
轨道中心:
EARTH
卫星名称:
星链-4482
卫星全名:
星链-4482 (STARLINK-4482 )
卫星状态:
在轨 (已飞行1174 天)
发射日期:
2022-08-19 UTC
国别 :
美国 (US)
星等 :
--
轨道信息
数据来源 国际轨道数据
星历时间: 2025-11-04T12:41:54+0800
22小时前
查看轨道信息
半长轴: 6917.897km
偏心率: 0.0001428
轨道倾角: 53.217°
近地点辐角 90.628°
升交点赤经 277.707°
平近点角 269.488°
近地点: 538.774km
远地点: 540.75km
周期: 95.438分钟
每日圈数: 15.088347
详细信息
固有亮度:
5
最大亮度:
2.5
卫星平台:
Starlink v1.5
覆盖范围:
全球
运营商:
太空探索技术公司
运营商所在国:
美国
制造商(研发单位):
太空探索技术公司
制造商所在国:
美国
使用方式:
暂无
卫星简介
星链(Starlink)计划是由太空探索技术公司(SpaceX)提出的一个巨型低轨卫星互联网星座项目,计划在2019年至2024年间在太空搭建由约1.2万颗卫星组成的“星链”网络,其中1584颗将部署在地球上空550千米处的近地轨道,并从2020年开始工作。该卫星仍在工作。
2D轨道图
3D轨道图
轨道高度分析图
轨道倾角分析图
轨道综合分析图
查看轨道综合分析图